User: anonymous   Login
Location: Bouchavesnes-Bergen
(49.9859°N, 2.9203°E)
Time: 16:01:52
(UTC+00:00)
Language:

IDEFIX/ARIANE 42P - Orbit

View from above orbital plane
View from above orbital plane
View from above satellite
View from above satellite

Ground track
Ground track

The orbit data is extracted from the following two-line orbital elements,

1 27422U 02021B   22272.46389449  .00000220  00000-0  10300-3 0  9995
2 27422  98.4572 215.3745 0011081 293.3714  66.6303 14.29453325 64317
Epoch (UTC): 29 September 2022 11:08:00
Eccentricity: 0.0011081
inclination: 98.4572°
perigee height: 785 km
apogee height: 801 km
right ascension of ascending node: 215.3745°
argument of perigee: 293.3714°
revolutions per day: 14.29453325
mean anomaly at epoch: 66.6303°
orbit number at epoch: 6431

The dashed part of the orbit path shows where the satellite is in the earth's shadow,  

DLR